weather.gov     
National Weather Service

Terminal Aerodrome Forecast
NWS Homepage
This page is being discontinued on March 12, 2014.
The same data is available at this site. Please update your bookmarks.
Thank you, and we apologize for the inconvenience.
Please send an email to SR-SRH.Webmaster@noaa.gov with any concerns.


Current Version
Previous Version:    01  02  03  04  05  06  07  08  09  10  11  12  13  14  15  16  17  18  19  20  21  22  23  24  25  26  27  28  29  30  
   31  32  33  34  35  36  37  38  39  
[Printable]
281
FTUS43 KGRR 160300 AAD
TAFLAN
TAF AMD
KLAN 160313Z 1603/1624 35003KT P6SM BKN015
     FM160500 VRB03KT P6SM SKC
     FM160600 VRB03KT 2SM BR SCT004
     FM160700 VRB03KT 1/4SM FG OVC004
     FM161400 34004KT 2SM BR BKN012
     FM161500 34005KT 4SM BR SCT012 BKN025
     FM161600 32006KT P6SM SCT035=


U.S. Dept. of Commerce
NOAA National Weather Service
1325 East West Highway
Silver Spring, MD 20910
E-mail: w-nws.webmaster@noaa.gov
Page last modified: May 16, 2007
NATIONAL WEATHER SERVICE: for Safety, for Work, for Fun - FOR LIFE